Overview Statistics Trail Chart Weather Telemetry Raw packets
 

This is the latest recevied weather packets stored in our database for station/object KN6DHD. If no packets are shown the sender has not sent any weather packets the latest 10 day(s).

<< 100 101 102 103 104 105 106 >>
Time Temp. Humidity Pressure Rain* Wind** Luminosity Snow
1776986431 23.89° C 43% 1016 hPa 0 mm - 437 W/m² -
1776986129 25° C 42% 1016.1 hPa 0 mm - 453 W/m² -
1776985825 24.44° C 43% 1016.3 hPa 0 mm - 446 W/m² -
1776985522 24.44° C 40% 1016.4 hPa 0 mm - 459 W/m² -
1776985218 24.44° C 43% 1016.4 hPa 0 mm - 476 W/m² -
1776984914 24.44° C 42% 1016.4 hPa 0 mm - 465 W/m² -
1776984610 23.89° C 45% 1016.2 hPa 0 mm - 474 W/m² -
1776984306 24.44° C 44% 1016.7 hPa 0 mm - 500 W/m² -
1776984002 24.44° C 46% 1016.4 hPa 0 mm - 523 W/m² -
1776983697 23.89° C 46% 1016.7 hPa 0 mm - 598 W/m² -
1776983394 23.89° C 46% 1016.5 hPa 0 mm - 712 W/m² -
1776983091 23.89° C 45% 1016.9 hPa 0 mm - 726 W/m² -
1776982788 23.89° C 46% 1017 hPa 0 mm - 707 W/m² -
1776982485 23.89° C 47% 1017 hPa 0 mm - 725 W/m² -
1776982185 23.89° C 47% 1016.9 hPa 0 mm - 726 W/m² -
1776981880 23.33° C 49% 1017.2 hPa 0 mm - 707 W/m² -
1776981575 23.33° C 48% 1017.4 hPa 0 mm - 677 W/m² -
1776981271 23.33° C 48% 1017.3 hPa 0 mm - 679 W/m² -
1776980967 23.33° C 49% 1017.3 hPa 0 mm - 703 W/m² -
1776980665 23.33° C 49% 1017.3 hPa 0 mm - 704 W/m² -
1776980360 23.33° C 49% 1017.7 hPa 0 mm - 737 W/m² -
1776980056 23.33° C 52% 1017.5 hPa 0 mm - 739 W/m² -
1776979752 23.89° C 49% 1017.6 hPa 0 mm - 701 W/m² -
1776979449 22.78° C 51% 1017.9 hPa 0 mm - 667 W/m² -
1776979145 22.78° C 53% 1017.8 hPa 0 mm - 652 W/m² -

* Rain latest hour (hover to see other rain measurements)
** Current wind speed in m/s (hover to see current wind gust speed)